Big Piney, WY

5:26 PM MDT on May 24, 2018 (GMT -0600)
Big Piney-Marbleton

Weather History for KBPI - March, 2012

Change the Weather History Date:

Tuesday, March 27, 2012

  Actual Average Record
Temperature  
Mean Temperature 34 °F 32 °F  
Max Temperature 46 °F 46 °F 66 °F (2015)
Min Temperature 21 °F 18 °F -5 °F (1996)
Degree Days  
Heating Degree Days 32 33  
Month to date heating degree days 1042  
Since 1 July heating degree days 8565  
Cooling Degree Days 0 0  
Month to date cooling degree days 0  
Year to date cooling degree days 0  
Moisture  
Dew Point 19 °F    
Average Humidity 58    
Maximum Humidity 81    
Minimum Humidity 34    
Precipitation  
Precipitation 0.00 in 0.02 in 0.22 in (2003)
Month to date precipitation 0.36  
Year to date precipitation 1.02  
Sea Level Pressure  
Sea Level Pressure 30.04 in    
Wind  
Wind Speed 7 mph (ENE)    
Max Wind Speed 12 mph    
Max Gust Speed -    
Visibility 10 miles    
Events      
T = Trace of Precipitation, MM = Missing Value Source: NWS Daily Summary

Daily Weather History Graph

Daily Weather History Graph

Search for Another Location

Airport or City:

Astronomy

Mar. 27, 2012 Rise Set
Actual Time 7:10 AM MDT 7:41 PM MDT
Civil Twilight 6:42 AM MDT 8:09 PM MDT
Nautical Twilight 6:08 AM MDT 8:43 PM MDT
Astronomical Twilight 5:34 AM MDT 9:17 PM MDT
Moon 9:37 AM MDT (3/27) 12:00 AM MDT (3/27)
Length of Visible Light 13h 27m
Length of Day
12h 30m
Waxing Crescent, 22% of the Moon is Illuminated
Mar 27
Waxing Crescent
Mar 30
First Quarter
Apr 6
Full
Apr 13
Last Quarter
Apr 21
New

Hourly Weather History & Observations

Time (MDT) Temp. Windchill Dew Point Humidity Pressure Visibility Wind Dir Wind Speed Gust Speed Precip Events Conditions
12:53 AM 27.0 °F 23.0 °F 19.0 °F 72% 29.94 in 10.0 mi NNE 3.5 mph - N/A   Partly Cloudy
1:53 AM 32.0 °F 23.0 °F 21.0 °F 64% 29.98 in 10.0 mi WSW 11.5 mph - N/A   Overcast
2:53 AM 28.0 °F 20.8 °F 23.0 °F 81% 30.01 in 10.0 mi WSW 6.9 mph - 0.00 in   Mostly Cloudy
3:53 AM 25.0 °F 17.1 °F 19.0 °F 78% 30.02 in 10.0 mi NNW 6.9 mph - N/A   Clear
4:53 AM 21.0 °F 10.6 °F 16.0 °F 81% 30.06 in 10.0 mi West 9.2 mph - N/A   Clear
5:53 AM 21.9 °F 15.7 °F 16.0 °F 78% 30.04 in 10.0 mi West 4.6 mph - N/A   Clear
6:53 AM 21.9 °F 15.7 °F 16.0 °F 78% 30.07 in 10.0 mi WNW 4.6 mph - N/A   Clear
7:53 AM 25.0 °F 20.7 °F 19.9 °F 81% 30.11 in 10.0 mi East 3.5 mph - N/A   Clear
8:53 AM 30.0 °F 22.4 °F 21.0 °F 69% 30.12 in 10.0 mi East 8.1 mph - N/A   Clear
9:53 AM 34.0 °F 29.8 °F 18.0 °F 52% 30.11 in 10.0 mi ESE 4.6 mph - N/A   Clear
10:53 AM 39.0 °F 34.0 °F 18.0 °F 43% 30.07 in 10.0 mi Variable 6.9 mph - N/A   Clear
11:53 AM 37.9 °F - 18.0 °F 45% 30.07 in 10.0 mi Calm Calm - N/A   Clear
12:53 PM 41.0 °F 34.7 °F 19.0 °F 41% 30.07 in 10.0 mi SE 10.4 mph - N/A   Clear
1:53 PM 44.1 °F 40.8 °F 19.0 °F 37% 30.02 in 10.0 mi East 5.8 mph - N/A   Clear
2:53 PM 45.0 °F 39.7 °F 19.9 °F 37% 30.00 in 10.0 mi East 10.4 mph - N/A   Partly Cloudy
3:53 PM 45.0 °F 40.6 °F 19.9 °F 37% 30.03 in 10.0 mi East 8.1 mph - N/A   Overcast
4:53 PM 46.9 °F - 19.9 °F 34% 30.03 in 10.0 mi East 9.2 mph - N/A   Scattered Clouds
5:53 PM 46.0 °F 42.5 °F 19.9 °F 35% 30.01 in 10.0 mi ENE 6.9 mph - N/A   Mostly Cloudy
6:53 PM 45.0 °F 40.1 °F 19.9 °F 37% 30.00 in 10.0 mi East 9.2 mph - N/A   Partly Cloudy
7:53 PM 37.0 °F 33.3 °F 19.0 °F 48% 30.02 in 10.0 mi East 4.6 mph - N/A   Clear
8:53 PM 32.0 °F 24.8 °F 18.0 °F 56% 30.04 in 10.0 mi NE 8.1 mph - N/A   Clear
9:53 PM 28.9 °F 20.4 °F 19.9 °F 69% 30.04 in 10.0 mi NNW 9.2 mph - N/A   Clear
10:53 PM 28.0 °F 20.0 °F 21.0 °F 75% 30.02 in 10.0 mi North 8.1 mph - N/A   Scattered Clouds
11:53 PM 27.0 °F 23.0 °F 19.9 °F 75% 30.02 in 10.0 mi SE 3.5 mph - N/A   Clear